Time,TemperatureF,DewpointF,PressureIn,WindDirection,WindDirectionDegrees,WindSpeedMPH,WindSpeedGustMPH,Humidity,HourlyPrecipIn,Conditions,Clouds,dailyrainin,SolarRadiationWatts/m^2,SoftwareType,DateUTC
2017-05-28 00:00:00,74.9,69.4,29.98,South,180,0.0,0.0,83,0.00,,BKN,0.00,0.00,VWS V15.00,2017-05-28 04:00:00,
2017-05-28 00:04:00,74.9,69.7,29.98,South,180,0.0,0.0,84,0.00,,BKN,0.00,0.00,VWS V15.00,2017-05-28 04:04:00,
2017-05-28 00:05:00,74.9,69.7,29.98,South,180,0.0,0.0,84,0.00,,BKN,0.00,0.00,VWS V15.00,2017-05-28 04:05:00,
2017-05-28 00:09:00,74.8,69.3,29.98,South,182,0.0,0.0,83,0.00,,BKN,0.00,0.00,VWS V15.00,2017-05-28 04:09:00,
2017-05-28 00:10:00,74.7,69.2,29.98,South,182,0.0,0.0,83,0.00,,BKN,0.00,0.00,VWS V15.00,2017-05-28 04:10:00,
2017-05-28 00:14:00,74.6,69.1,29.98,South,182,0.0,0.0,83,0.00,,BKN,0.00,0.00,VWS V15.00,2017-05-28 04:14:00,
2017-05-28 00:15:00,74.6,69.1,29.98,South,182,0.0,0.0,83,0.00,,BKN,0.00,0.00,VWS V15.00,2017-05-28 04:15:00,
2017-05-28 00:19:00,74.5,69.0,29.98,South,182,0.0,0.0,83,0.00,,BKN,0.00,0.00,VWS V15.00,2017-05-28 04:19:00,
2017-05-28 00:20:00,74.5,69.0,29.98,South,182,0.0,0.0,83,0.00,,BKN,0.00,0.00,VWS V15.00,2017-05-28 04:20:00,
2017-05-28 00:24:00,74.4,68.9,29.98,South,179,0.0,0.0,83,0.00,,BKN,0.00,0.00,VWS V15.00,2017-05-28 04:24:00,
2017-05-28 00:25:00,74.4,68.9,29.98,South,182,0.0,0.0,83,0.00,,BKN,0.00,0.00,VWS V15.00,2017-05-28 04:25:00,
2017-05-28 00:29:00,74.3,68.8,29.98,South,184,0.0,0.0,83,0.00,,BKN,0.00,0.00,VWS V15.00,2017-05-28 04:29:00,
2017-05-28 00:30:00,74.2,68.7,29.98,South,184,0.0,0.0,83,0.00,,BKN,0.00,0.00,VWS V15.00,2017-05-28 04:30:00,
2017-05-28 00:34:00,74.2,68.7,29.98,South,184,0.0,0.0,83,0.00,,BKN,0.00,0.00,VWS V15.00,2017-05-28 04:34:00,
2017-05-28 00:35:00,74.1,68.6,29.98,South,184,0.0,0.0,83,0.00,,BKN,0.00,0.00,VWS V15.00,2017-05-28 04:35:00,
2017-05-28 00:39:00,74.0,68.5,29.97,South,182,0.0,0.0,83,0.00,,BKN,0.00,0.00,VWS V15.00,2017-05-28 04:39:00,
2017-05-28 00:40:00,73.9,68.4,29.97,South,182,0.0,0.0,83,0.00,,BKN,0.00,0.00,VWS V15.00,2017-05-28 04:40:00,
2017-05-28 00:41:00,73.9,68.4,29.97,South,184,0.0,0.0,83,0.00,,BKN,0.00,0.00,VWS V15.00,2017-05-28 04:41:00,
2017-05-28 00:45:00,73.9,68.4,29.98,South,184,0.0,0.0,83,0.00,,BKN,0.00,0.00,VWS V15.00,2017-05-28 04:45:00,
2017-05-28 00:46:00,73.8,68.3,29.98,South,173,0.0,0.0,83,0.00,,BKN,0.00,0.00,VWS V15.00,2017-05-28 04:46:00,
2017-05-28 00:50:00,73.7,68.2,29.98,South,180,0.0,0.0,83,0.00,,BKN,0.00,0.00,VWS V15.00,2017-05-28 04:50:00,
2017-05-28 00:51:00,73.7,68.2,29.98,South,180,0.0,0.0,83,0.00,,BKN,0.00,0.00,VWS V15.00,2017-05-28 04:51:00,
2017-05-28 00:55:00,73.6,68.1,29.97,South,182,0.0,0.0,83,0.00,,BKN,0.00,0.00,VWS V15.00,2017-05-28 04:55:00,
2017-05-28 00:56:00,73.6,68.1,29.97,South,182,0.0,0.0,83,0.00,,BKN,0.00,0.00,VWS V15.00,2017-05-28 04:56:00,
2017-05-28 01:00:00,73.5,68.0,29.97,South,183,0.0,0.0,83,0.00,,BKN,0.00,0.00,VWS V15.00,2017-05-28 05:00:00,
2017-05-28 01:01:00,73.4,67.9,29.97,South,185,0.0,1.0,83,0.00,,BKN,0.00,0.00,VWS V15.00,2017-05-28 05:01:00,
2017-05-28 01:05:00,73.4,67.9,29.97,South,187,0.0,2.0,83,0.00,,BKN,0.00,0.00,VWS V15.00,2017-05-28 05:05:00,
2017-05-28 01:06:00,73.4,67.9,29.97,South,187,0.0,0.0,83,0.00,,BKN,0.00,0.00,VWS V15.00,2017-05-28 05:06:00,
2017-05-28 01:10:00,73.3,67.8,29.97,South,184,0.0,0.0,83,0.00,,BKN,0.00,0.00,VWS V15.00,2017-05-28 05:10:00,
2017-05-28 01:11:00,73.3,67.8,29.97,South,184,0.0,0.0,83,0.00,,BKN,0.00,0.00,VWS V15.00,2017-05-28 05:11:00,
2017-05-28 01:15:00,73.3,67.8,29.97,South,188,0.0,0.0,83,0.00,,BKN,0.00,0.00,VWS V15.00,2017-05-28 05:15:00,
2017-05-28 01:16:00,73.3,67.8,29.97,South,189,0.0,0.0,83,0.00,,BKN,0.00,0.00,VWS V15.00,2017-05-28 05:16:00,
2017-05-28 01:20:00,73.3,67.8,29.97,South,190,0.0,0.0,83,0.00,,BKN,0.00,0.00,VWS V15.00,2017-05-28 05:20:00,
2017-05-28 01:21:00,73.3,67.8,29.96,South,190,0.0,0.0,83,0.00,,BKN,0.00,0.00,VWS V15.00,2017-05-28 05:21:00,
2017-05-28 01:25:00,73.2,67.7,29.97,South,190,0.0,2.0,83,0.00,,BKN,0.00,0.00,VWS V15.00,2017-05-28 05:25:00,
2017-05-28 01:26:00,73.1,67.6,29.97,SSW,202,0.0,2.0,83,0.00,,BKN,0.00,0.00,VWS V15.00,2017-05-28 05:26:00,
2017-05-28 01:30:00,73.0,67.5,29.96,WSW,254,0.0,3.0,83,0.00,,BKN,0.00,0.00,VWS V15.00,2017-05-28 05:30:00,
2017-05-28 01:31:00,73.0,67.5,29.97,WSW,254,0.0,0.0,83,0.00,,BKN,0.00,0.00,VWS V15.00,2017-05-28 05:31:00,
2017-05-28 01:35:00,72.8,67.3,29.97,WSW,254,0.0,0.0,83,0.00,,BKN,0.00,0.00,VWS V15.00,2017-05-28 05:35:00,
2017-05-28 01:36:00,72.8,67.3,29.97,WSW,254,0.0,0.0,83,0.00,,BKN,0.00,0.00,VWS V15.00,2017-05-28 05:36:00,
2017-05-28 01:40:00,72.7,67.2,29.97,WSW,237,0.0,0.0,83,0.00,,BKN,0.00,0.00,VWS V15.00,2017-05-28 05:40:00,
2017-05-28 01:41:00,72.7,67.2,29.97,WSW,237,0.0,0.0,83,0.00,,BKN,0.00,0.00,VWS V15.00,2017-05-28 05:41:00,
2017-05-28 01:45:00,72.7,67.2,29.97,West,263,0.0,0.0,83,0.00,,BKN,0.00,0.00,VWS V15.00,2017-05-28 05:45:00,
2017-05-28 01:46:00,72.6,67.2,29.97,West,261,0.0,0.0,83,0.00,,BKN,0.00,0.00,VWS V15.00,2017-05-28 05:46:00,
2017-05-28 01:50:00,72.6,67.2,29.97,West,261,0.0,2.0,83,0.00,,BKN,0.00,0.00,VWS V15.00,2017-05-28 05:50:00,
2017-05-28 01:51:00,72.6,67.2,29.97,West,261,2.0,2.0,83,0.00,,BKN,0.00,0.00,VWS V15.00,2017-05-28 05:51:00,
2017-05-28 01:55:00,72.5,67.1,29.97,West,262,0.0,3.0,83,0.00,,BKN,0.00,0.00,VWS V15.00,2017-05-28 05:55:00,
2017-05-28 01:56:00,72.5,67.1,29.97,West,259,0.0,1.0,83,0.00,,BKN,0.00,0.00,VWS V15.00,2017-05-28 05:56:00,
2017-05-28 02:00:00,72.3,66.8,29.97,WSW,244,0.0,3.0,83,0.00,,BKN,0.00,0.00,VWS V15.00,2017-05-28 06:00:00,
2017-05-28 02:01:00,72.3,66.8,29.97,WSW,244,0.0,0.0,83,0.00,,BKN,0.00,0.00,VWS V15.00,2017-05-28 06:01:00,
2017-05-28 02:05:00,72.3,66.8,29.97,WSW,237,0.0,3.0,83,0.00,,BKN,0.00,0.00,VWS V15.00,2017-05-28 06:05:00,
2017-05-28 02:06:00,72.3,66.8,29.97,WSW,238,1.0,2.0,83,0.00,,BKN,0.00,0.00,VWS V15.00,2017-05-28 06:06:00,
2017-05-28 02:10:00,72.2,66.8,29.96,WSW,240,0.0,2.0,83,0.00,,BKN,0.00,0.00,VWS V15.00,2017-05-28 06:10:00,
2017-05-28 02:11:00,72.2,66.8,29.96,WSW,240,0.0,0.0,83,0.00,,BKN,0.00,0.00,VWS V15.00,2017-05-28 06:11:00,
2017-05-28 02:15:00,72.1,66.7,29.96,WSW,238,0.0,0.0,83,0.00,,BKN,0.00,0.00,VWS V15.00,2017-05-28 06:15:00,
2017-05-28 02:16:00,72.1,66.7,29.95,WSW,238,0.0,0.0,83,0.00,,BKN,0.00,0.00,VWS V15.00,2017-05-28 06:16:00,
2017-05-28 02:20:00,72.1,66.7,29.95,WSW,238,0.0,0.0,83,0.00,,BKN,0.00,0.00,VWS V15.00,2017-05-28 06:20:00,
2017-05-28 02:21:00,72.1,66.7,29.96,WSW,238,0.0,0.0,83,0.00,,BKN,0.00,0.00,VWS V15.00,2017-05-28 06:21:00,
2017-05-28 02:25:00,72.0,66.6,29.95,WSW,238,0.0,0.0,83,0.00,,BKN,0.00,0.00,VWS V15.00,2017-05-28 06:25:00,
2017-05-28 02:26:00,72.0,66.6,29.95,WSW,238,0.0,1.0,83,0.00,,BKN,0.00,0.00,VWS V15.00,2017-05-28 06:26:00,
2017-05-28 02:30:00,71.9,66.5,29.95,WSW,238,0.0,1.0,83,0.00,,BKN,0.00,0.00,VWS V15.00,2017-05-28 06:30:00,
2017-05-28 02:31:00,71.8,66.4,29.95,WSW,238,0.0,0.0,83,0.00,,BKN,0.00,0.00,VWS V15.00,2017-05-28 06:31:00,
2017-05-28 02:35:00,71.8,66.4,29.95,WSW,238,0.0,0.0,83,0.00,,BKN,0.00,0.00,VWS V15.00,2017-05-28 06:35:00,
2017-05-28 02:36:00,71.7,66.6,29.95,WSW,238,0.0,0.0,84,0.00,,BKN,0.00,0.00,VWS V15.00,2017-05-28 06:36:00,
2017-05-28 02:40:00,71.7,66.6,29.95,WSW,238,0.0,0.0,84,0.00,,BKN,0.00,0.00,VWS V15.00,2017-05-28 06:40:00,
2017-05-28 02:41:00,71.6,66.5,29.95,WSW,238,0.0,0.0,84,0.00,,BKN,0.00,0.00,VWS V15.00,2017-05-28 06:41:00,
2017-05-28 02:45:00,71.6,66.5,29.95,WSW,242,2.0,3.0,84,0.00,,BKN,0.00,0.00,VWS V15.00,2017-05-28 06:45:00,
2017-05-28 02:46:00,71.6,66.5,29.95,WSW,240,0.0,2.0,84,0.00,,BKN,0.00,0.00,VWS V15.00,2017-05-28 06:46:00,
2017-05-28 02:50:00,71.6,66.5,29.95,WSW,242,0.0,2.0,84,0.00,,BKN,0.00,0.00,VWS V15.00,2017-05-28 06:50:00,
2017-05-28 02:51:00,71.6,66.5,29.95,WSW,242,0.0,0.0,84,0.00,,BKN,0.00,0.00,VWS V15.00,2017-05-28 06:51:00,
2017-05-28 02:55:00,71.6,66.9,29.94,WSW,242,0.0,0.0,85,0.00,,BKN,0.00,0.00,VWS V15.00,2017-05-28 06:55:00,
2017-05-28 02:56:00,71.6,66.9,29.95,WSW,241,0.0,0.0,85,0.00,,BKN,0.00,0.00,VWS V15.00,2017-05-28 06:56:00,
2017-05-28 03:00:00,71.5,66.4,29.95,SW,235,0.0,3.0,84,0.00,,BKN,0.00,0.00,VWS V15.00,2017-05-28 07:00:00,
2017-05-28 03:01:00,71.4,66.3,29.95,SW,235,0.0,0.0,84,0.00,,BKN,0.00,0.00,VWS V15.00,2017-05-28 07:01:00,
2017-05-28 03:05:00,71.4,66.7,29.94,SW,234,0.0,2.0,85,0.00,,BKN,0.00,0.00,VWS V15.00,2017-05-28 07:05:00,
2017-05-28 03:06:00,71.4,66.7,29.94,SW,234,0.0,0.0,85,0.00,,BKN,0.00,0.00,VWS V15.00,2017-05-28 07:06:00,
2017-05-28 03:10:00,71.3,66.6,29.94,SW,233,0.0,1.0,85,0.00,,BKN,0.00,0.00,VWS V15.00,2017-05-28 07:10:00,
2017-05-28 03:11:00,71.3,66.6,29.94,SW,233,0.0,0.0,85,0.00,,BKN,0.00,0.00,VWS V15.00,2017-05-28 07:11:00,
2017-05-28 03:15:00,71.2,66.5,29.94,SW,233,0.0,0.0,85,0.00,,BKN,0.00,0.00,VWS V15.00,2017-05-28 07:15:00,
2017-05-28 03:16:00,71.2,66.5,29.94,SW,234,0.0,0.0,85,0.00,,BKN,0.00,0.00,VWS V15.00,2017-05-28 07:16:00,
2017-05-28 03:20:00,71.3,66.6,29.94,SW,236,0.0,0.0,85,0.00,,BKN,0.00,0.00,VWS V15.00,2017-05-28 07:20:00,
2017-05-28 03:21:00,71.3,66.6,29.94,WSW,237,0.0,0.0,85,0.00,,BKN,0.00,0.00,VWS V15.00,2017-05-28 07:21:00,
2017-05-28 03:25:00,71.2,66.8,29.94,WSW,238,0.0,1.0,86,0.00,,BKN,0.00,0.00,VWS V15.00,2017-05-28 07:25:00,
2017-05-28 03:26:00,71.2,66.8,29.94,WSW,238,0.0,0.0,86,0.00,,BKN,0.00,0.00,VWS V15.00,2017-05-28 07:26:00,
2017-05-28 03:30:00,71.2,66.8,29.94,WSW,237,0.0,0.0,86,0.00,,BKN,0.00,0.00,VWS V15.00,2017-05-28 07:30:00,
2017-05-28 03:31:00,71.1,66.7,29.94,WSW,237,0.0,0.0,86,0.00,,BKN,0.00,0.00,VWS V15.00,2017-05-28 07:31:00,
2017-05-28 03:35:00,71.0,66.6,29.93,WSW,237,0.0,0.0,86,0.00,,BKN,0.00,0.00,VWS V15.00,2017-05-28 07:35:00,
2017-05-28 03:36:00,71.0,66.6,29.93,WSW,237,0.0,0.0,86,0.00,,BKN,0.00,0.00,VWS V15.00,2017-05-28 07:36:00,
2017-05-28 03:40:00,70.8,66.4,29.93,SW,236,0.0,0.0,86,0.00,,BKN,0.00,0.00,VWS V15.00,2017-05-28 07:40:00,
2017-05-28 03:41:00,70.8,66.4,29.93,SW,236,0.0,0.0,86,0.00,,BKN,0.00,0.00,VWS V15.00,2017-05-28 07:41:00,
2017-05-28 03:45:00,70.9,66.8,29.94,WSW,250,0.0,3.0,87,0.00,,BKN,0.00,0.00,VWS V15.00,2017-05-28 07:45:00,
2017-05-28 03:46:00,70.9,66.8,29.94,WSW,250,0.0,0.0,87,0.00,,BKN,0.00,0.00,VWS V15.00,2017-05-28 07:46:00,
2017-05-28 03:50:00,70.9,66.8,29.94,WSW,249,0.0,0.0,87,0.00,,BKN,0.00,0.00,VWS V15.00,2017-05-28 07:50:00,
2017-05-28 03:51:00,70.9,66.8,29.94,WSW,249,0.0,0.0,87,0.00,,BKN,0.00,0.00,VWS V15.00,2017-05-28 07:51:00,
2017-05-28 03:55:00,70.8,66.7,29.94,WSW,249,0.0,0.0,87,0.00,,BKN,0.00,0.00,VWS V15.00,2017-05-28 07:55:00,
2017-05-28 03:56:00,70.8,66.7,29.94,SSW,213,3.0,3.0,87,0.00,,BKN,0.00,0.00,VWS V15.00,2017-05-28 07:56:00,
2017-05-28 04:00:00,70.8,66.7,29.94,SW,215,0.0,3.0,87,0.00,,BKN,0.00,0.00,VWS V15.00,2017-05-28 08:00:00,
2017-05-28 04:01:00,70.8,66.7,29.93,SW,214,0.0,0.0,87,0.00,,BKN,0.00,0.00,VWS V15.00,2017-05-28 08:01:00,
2017-05-28 04:05:00,70.8,66.7,29.94,SW,215,0.0,0.0,87,0.00,,BKN,0.00,0.00,VWS V15.00,2017-05-28 08:05:00,
2017-05-28 04:06:00,70.8,66.7,29.94,SW,215,0.0,0.0,87,0.00,,BKN,0.00,0.00,VWS V15.00,2017-05-28 08:06:00,
2017-05-28 04:10:00,70.7,66.7,29.94,SW,216,0.0,0.0,87,0.00,,BKN,0.00,0.00,VWS V15.00,2017-05-28 08:10:00,
2017-05-28 04:11:00,70.7,67.0,29.94,SW,216,0.0,0.0,88,0.00,,BKN,0.00,0.00,VWS V15.00,2017-05-28 08:11:00,
2017-05-28 04:15:00,70.7,67.0,29.94,SW,216,0.0,0.0,88,0.00,,BKN,0.00,0.00,VWS V15.00,2017-05-28 08:15:00,
2017-05-28 04:16:00,70.7,67.0,29.94,SW,216,0.0,0.0,88,0.00,,BKN,0.00,0.00,VWS V15.00,2017-05-28 08:16:00,
2017-05-28 04:20:00,70.5,66.8,29.94,SW,231,0.0,2.0,88,0.00,,BKN,0.00,0.00,VWS V15.00,2017-05-28 08:20:00,
2017-05-28 04:21:00,70.5,66.8,29.93,SW,231,0.0,0.0,88,0.00,,BKN,0.00,0.00,VWS V15.00,2017-05-28 08:21:00,
2017-05-28 04:25:00,70.5,66.8,29.93,SW,231,0.0,0.0,88,0.00,,BKN,0.00,0.00,VWS V15.00,2017-05-28 08:25:00,
2017-05-28 04:26:00,70.5,66.8,29.93,SW,231,0.0,0.0,88,0.00,,BKN,0.00,0.00,VWS V15.00,2017-05-28 08:26:00,
2017-05-28 04:30:00,70.5,66.8,29.93,SW,231,0.0,0.0,88,0.00,,BKN,0.00,0.00,VWS V15.00,2017-05-28 08:30:00,
2017-05-28 04:31:00,70.5,66.8,29.93,SW,231,0.0,0.0,88,0.00,,BKN,0.00,0.00,VWS V15.00,2017-05-28 08:31:00,
2017-05-28 04:35:00,70.5,67.1,29.93,SW,231,0.0,0.0,89,0.00,,BKN,0.00,0.00,VWS V15.00,2017-05-28 08:35:00,
2017-05-28 04:36:00,70.6,67.2,29.94,SW,231,0.0,0.0,89,0.00,,BKN,0.00,0.00,VWS V15.00,2017-05-28 08:36:00,
2017-05-28 04:40:00,70.6,67.2,29.94,SW,231,0.0,0.0,89,0.00,,BKN,0.00,0.00,VWS V15.00,2017-05-28 08:40:00,
2017-05-28 04:41:00,70.6,67.2,29.94,SW,231,0.0,0.0,89,0.00,,BKN,0.00,0.00,VWS V15.00,2017-05-28 08:41:00,
2017-05-28 04:45:00,70.6,67.2,29.94,SW,231,0.0,0.0,89,0.00,,BKN,0.00,0.00,VWS V15.00,2017-05-28 08:45:00,
2017-05-28 04:46:00,70.6,67.2,29.94,SW,231,0.0,0.0,89,0.00,,BKN,0.00,0.00,VWS V15.00,2017-05-28 08:46:00,
2017-05-28 04:50:00,70.7,67.3,29.94,WSW,254,0.0,1.0,89,0.00,,BKN,0.00,0.00,VWS V15.00,2017-05-28 08:50:00,
2017-05-28 04:51:00,70.6,67.2,29.94,WSW,254,0.0,0.0,89,0.00,,BKN,0.00,0.00,VWS V15.00,2017-05-28 08:51:00,
2017-05-28 04:56:00,70.6,67.2,29.94,WSW,253,0.0,0.0,89,0.00,,BKN,0.00,0.00,VWS V15.00,2017-05-28 08:56:00,
2017-05-28 05:00:00,70.4,67.0,29.94,WSW,253,0.0,0.0,89,0.00,,BKN,0.00,0.00,VWS V15.00,2017-05-28 09:00:00,
2017-05-28 05:01:00,70.4,67.0,29.94,WSW,253,0.0,0.0,89,0.00,,BKN,0.00,0.00,VWS V15.00,2017-05-28 09:01:00,
2017-05-28 05:05:00,70.2,66.8,29.94,WSW,249,0.0,0.0,89,0.00,,BKN,0.00,0.00,VWS V15.00,2017-05-28 09:05:00,
2017-05-28 05:06:00,70.2,66.8,29.94,WSW,249,0.0,0.0,89,0.00,,BKN,0.00,0.00,VWS V15.00,2017-05-28 09:06:00,
2017-05-28 05:10:00,70.2,67.1,29.94,SW,234,0.0,3.0,90,0.00,,BKN,0.00,0.00,VWS V15.00,2017-05-28 09:10:00,
2017-05-28 05:11:00,70.2,67.1,29.94,SW,235,2.0,2.0,90,0.00,,BKN,0.00,0.00,VWS V15.00,2017-05-28 09:11:00,
2017-05-28 05:15:00,70.2,67.1,29.94,SW,236,0.0,2.0,90,0.00,,BKN,0.00,0.00,VWS V15.00,2017-05-28 09:15:00,
2017-05-28 05:16:00,70.2,67.1,29.94,WSW,237,0.0,1.0,90,0.00,,BKN,0.00,0.00,VWS V15.00,2017-05-28 09:16:00,
2017-05-28 05:20:00,70.1,67.0,29.94,WSW,238,0.0,3.0,90,0.00,,BKN,0.00,0.00,VWS V15.00,2017-05-28 09:20:00,
2017-05-28 05:21:00,70.1,67.0,29.94,WSW,241,0.0,0.0,90,0.00,,BKN,0.00,0.00,VWS V15.00,2017-05-28 09:21:00,
2017-05-28 05:25:00,70.2,67.1,29.94,SW,236,0.0,0.0,90,0.00,,BKN,0.00,0.00,VWS V15.00,2017-05-28 09:25:00,
2017-05-28 05:26:00,70.2,67.1,29.94,SW,236,0.0,0.0,90,0.00,,BKN,0.00,0.00,VWS V15.00,2017-05-28 09:26:00,
2017-05-28 05:30:00,70.2,67.1,29.94,SW,236,0.0,1.0,90,0.00,,BKN,0.00,0.00,VWS V15.00,2017-05-28 09:30:00,
2017-05-28 05:31:00,70.2,67.1,29.94,WSW,238,0.0,0.0,90,0.00,,BKN,0.00,0.00,VWS V15.00,2017-05-28 09:31:00,
2017-05-28 05:35:00,70.4,67.7,29.94,SW,234,3.0,3.0,91,0.00,,BKN,0.00,0.00,VWS V15.00,2017-05-28 09:35:00,
2017-05-28 05:36:00,70.4,67.7,29.94,WSW,237,0.0,3.0,91,0.00,,BKN,0.00,0.00,VWS V15.00,2017-05-28 09:36:00,
2017-05-28 05:40:00,70.6,67.8,29.94,WSW,241,0.0,3.0,91,0.00,,BKN,0.00,0.00,VWS V15.00,2017-05-28 09:40:00,
2017-05-28 05:41:00,70.6,67.8,29.94,WSW,241,0.0,0.0,91,0.00,,BKN,0.00,0.00,VWS V15.00,2017-05-28 09:41:00,
2017-05-28 05:45:00,70.6,67.8,29.94,SW,226,2.0,5.0,91,0.00,,BKN,0.00,0.00,VWS V15.00,2017-05-28 09:45:00,
2017-05-28 05:46:00,70.6,67.8,29.94,SW,229,1.0,2.0,91,0.00,,BKN,0.00,0.00,VWS V15.00,2017-05-28 09:46:00,
2017-05-28 05:50:00,70.6,67.8,29.94,WSW,243,0.0,3.0,91,0.00,,BKN,0.00,0.00,VWS V15.00,2017-05-28 09:50:00,
2017-05-28 05:51:00,70.6,67.8,29.94,WSW,241,1.0,1.0,91,0.00,,BKN,0.00,0.00,VWS V15.00,2017-05-28 09:51:00,
2017-05-28 05:55:00,70.8,68.1,29.94,SW,235,0.0,5.0,91,0.00,,BKN,0.00,0.00,VWS V15.00,2017-05-28 09:55:00,
2017-05-28 05:56:00,70.8,68.1,29.94,WSW,255,4.0,4.0,91,0.00,,BKN,0.00,0.00,VWS V15.00,2017-05-28 09:56:00,
2017-05-28 06:00:00,71.0,68.2,29.94,SW,236,0.0,4.0,91,0.00,,BKN,0.00,0.00,VWS V15.00,2017-05-28 10:00:00,
2017-05-28 06:01:00,71.0,68.2,29.94,SW,236,0.0,0.0,91,0.00,,BKN,0.00,0.00,VWS V15.00,2017-05-28 10:01:00,
2017-05-28 06:05:00,71.1,68.7,29.94,West,269,0.0,5.0,92,0.00,,BKN,0.00,0.00,VWS V15.00,2017-05-28 10:05:00,
2017-05-28 06:06:00,71.1,68.7,29.94,WSW,254,2.0,2.0,92,0.00,,BKN,0.00,0.00,VWS V15.00,2017-05-28 10:06:00,
2017-05-28 06:10:00,71.4,69.0,29.94,WSW,248,0.0,6.0,92,0.00,,BKN,0.00,0.00,VWS V15.00,2017-05-28 10:10:00,
2017-05-28 06:12:00,71.4,69.0,29.95,WNW,284,0.0,0.0,92,0.00,,BKN,0.00,0.00,VWS V15.00,2017-05-28 10:12:00,
2017-05-28 06:15:00,71.6,69.2,29.95,SW,231,0.0,5.0,92,0.00,,BKN,0.00,0.00,VWS V15.00,2017-05-28 10:15:00,
2017-05-28 06:17:00,71.6,69.2,29.95,WSW,237,0.0,0.0,92,0.00,,BKN,0.00,0.00,VWS V15.00,2017-05-28 10:17:00,
2017-05-28 06:20:00,71.5,69.1,29.95,SW,232,0.0,5.0,92,0.00,,BKN,0.00,0.00,VWS V15.00,2017-05-28 10:20:00,
2017-05-28 06:22:00,71.5,69.1,29.95,SW,234,0.0,0.0,92,0.00,,BKN,0.00,0.00,VWS V15.00,2017-05-28 10:22:00,
2017-05-28 06:25:00,71.5,69.1,29.95,West,263,0.0,3.0,92,0.00,,BKN,0.00,0.00,VWS V15.00,2017-05-28 10:25:00,
2017-05-28 06:27:00,71.5,69.1,29.95,WSW,238,2.0,2.0,92,0.00,,BKN,0.00,0.00,VWS V15.00,2017-05-28 10:27:00,
2017-05-28 06:30:00,71.5,69.1,29.95,WSW,246,0.0,2.0,92,0.00,,BKN,0.00,5.00,VWS V15.00,2017-05-28 10:30:00,
2017-05-28 06:31:00,71.4,69.0,29.95,WSW,244,0.0,0.0,92,0.00,,BKN,0.00,5.00,VWS V15.00,2017-05-28 10:31:00,
2017-05-28 06:35:00,71.3,68.9,29.96,WSW,253,1.0,1.0,92,0.00,,BKN,0.00,7.00,VWS V15.00,2017-05-28 10:35:00,
2017-05-28 06:37:00,71.3,68.9,29.96,WSW,253,0.0,2.0,92,0.00,,BKN,0.00,7.00,VWS V15.00,2017-05-28 10:37:00,
2017-05-28 06:40:00,71.2,68.8,29.96,West,271,0.0,2.0,92,0.00,,BKN,0.00,9.00,VWS V15.00,2017-05-28 10:40:00,
2017-05-28 06:42:00,71.1,68.7,29.96,West,265,3.0,3.0,92,0.00,,BKN,0.00,9.00,VWS V15.00,2017-05-28 10:42:00,
2017-05-28 06:45:00,71.0,68.6,29.96,West,264,0.0,3.0,92,0.00,,BKN,0.00,11.00,VWS V15.00,2017-05-28 10:45:00,
2017-05-28 06:47:00,71.0,68.6,29.96,West,264,0.0,0.0,92,0.00,,BKN,0.00,12.00,VWS V15.00,2017-05-28 10:47:00,
2017-05-28 06:50:00,71.2,68.8,29.96,WSW,243,0.0,0.0,92,0.00,,BKN,0.00,14.00,VWS V15.00,2017-05-28 10:50:00,
2017-05-28 06:52:00,71.2,68.8,29.96,WSW,248,0.0,0.0,92,0.00,,BKN,0.00,14.00,VWS V15.00,2017-05-28 10:52:00,
2017-05-28 06:55:00,71.3,68.9,29.97,West,265,0.0,0.0,92,0.00,,BKN,0.00,18.00,VWS V15.00,2017-05-28 10:55:00,
2017-05-28 06:57:00,71.3,68.9,29.97,West,265,0.0,1.0,92,0.00,,BKN,0.00,18.00,VWS V15.00,2017-05-28 10:57:00,
2017-05-28 07:00:00,71.3,68.9,29.96,West,265,0.0,1.0,92,0.00,,BKN,0.00,19.00,VWS V15.00,2017-05-28 11:00:00,
2017-05-28 07:02:00,71.3,68.9,29.96,SW,221,1.0,5.0,92,0.00,,BKN,0.00,19.00,VWS V15.00,2017-05-28 11:02:00,
2017-05-28 07:05:00,71.3,68.9,29.96,SW,229,0.0,5.0,92,0.00,,BKN,0.00,23.00,VWS V15.00,2017-05-28 11:05:00,
2017-05-28 07:06:00,71.3,69.2,29.96,SW,229,0.0,0.0,93,0.00,,BKN,0.00,23.00,VWS V15.00,2017-05-28 11:06:00,
2017-05-28 07:10:00,71.4,69.3,29.96,WSW,240,0.0,0.0,93,0.00,,BKN,0.00,26.00,VWS V15.00,2017-05-28 11:10:00,
2017-05-28 07:11:00,71.4,69.3,29.96,WSW,240,0.0,0.0,93,0.00,,BKN,0.00,26.00,VWS V15.00,2017-05-28 11:11:00,
2017-05-28 07:15:00,71.6,69.5,29.97,WSW,244,0.0,0.0,93,0.00,,BKN,0.00,28.00,VWS V15.00,2017-05-28 11:15:00,
2017-05-28 07:16:00,71.6,69.5,29.96,WSW,247,0.0,0.0,93,0.00,,BKN,0.00,28.00,VWS V15.00,2017-05-28 11:16:00,
2017-05-28 07:20:00,71.7,69.6,29.97,West,271,0.0,2.0,93,0.00,,BKN,0.00,30.00,VWS V15.00,2017-05-28 11:20:00,
2017-05-28 07:21:00,71.7,69.6,29.96,SW,227,5.0,5.0,93,0.00,,BKN,0.00,32.00,VWS V15.00,2017-05-28 11:21:00,
2017-05-28 07:25:00,71.8,69.7,29.97,West,268,0.0,5.0,93,0.00,,BKN,0.00,69.00,VWS V15.00,2017-05-28 11:25:00,
2017-05-28 07:26:00,71.8,69.7,29.97,West,268,0.0,0.0,93,0.00,,BKN,0.00,46.00,VWS V15.00,2017-05-28 11:26:00,
2017-05-28 07:30:00,71.9,69.8,29.96,West,263,1.0,3.0,93,0.00,,BKN,0.00,91.00,VWS V15.00,2017-05-28 11:30:00,
2017-05-28 07:31:00,71.9,69.8,29.96,West,263,1.0,3.0,93,0.00,,BKN,0.00,77.00,VWS V15.00,2017-05-28 11:31:00,
2017-05-28 07:35:00,72.0,69.9,29.96,WSW,241,0.0,3.0,93,0.00,,BKN,0.00,44.00,VWS V15.00,2017-05-28 11:35:00,
2017-05-28 07:36:00,72.0,69.9,29.96,WSW,246,2.0,2.0,93,0.00,,BKN,0.00,42.00,VWS V15.00,2017-05-28 11:36:00,
2017-05-28 07:40:00,72.1,70.0,29.96,West,265,0.0,3.0,93,0.00,,BKN,0.00,46.00,VWS V15.00,2017-05-28 11:40:00,
2017-05-28 07:41:00,72.1,70.0,29.96,West,265,0.0,1.0,93,0.00,,BKN,0.00,53.00,VWS V15.00,2017-05-28 11:41:00,
2017-05-28 07:45:00,72.3,70.2,29.97,WSW,257,0.0,2.0,93,0.00,,BKN,0.00,91.00,VWS V15.00,2017-05-28 11:45:00,
2017-05-28 07:46:00,72.3,70.2,29.97,West,273,0.0,0.0,93,0.00,,BKN,0.00,46.00,VWS V15.00,2017-05-28 11:46:00,
2017-05-28 07:50:00,72.5,70.4,29.97,WSW,248,0.0,6.0,93,0.00,,BKN,0.00,47.00,VWS V15.00,2017-05-28 11:50:00,
2017-05-28 07:51:00,72.6,70.5,29.97,WSW,254,0.0,2.0,93,0.00,,BKN,0.00,49.00,VWS V15.00,2017-05-28 11:51:00,
2017-05-28 07:55:00,72.7,70.6,29.97,WSW,246,1.0,4.0,93,0.00,,BKN,0.00,49.00,VWS V15.00,2017-05-28 11:55:00,
2017-05-28 07:56:00,72.7,70.6,29.97,WSW,238,4.0,4.0,93,0.00,,BKN,0.00,51.00,VWS V15.00,2017-05-28 11:56:00,
2017-05-28 08:00:00,72.9,70.8,29.97,WSW,254,0.0,4.0,93,0.00,,BKN,0.00,63.00,VWS V15.00,2017-05-28 12:00:00,
2017-05-28 08:01:00,72.9,70.8,29.97,West,267,0.0,0.0,93,0.00,,BKN,0.00,54.00,VWS V15.00,2017-05-28 12:01:00,
2017-05-28 08:05:00,73.1,71.0,29.97,WSW,254,0.0,0.0,93,0.00,,BKN,0.00,56.00,VWS V15.00,2017-05-28 12:05:00,
2017-05-28 08:06:00,73.2,71.1,29.97,WNW,286,0.0,0.0,93,0.00,,BKN,0.00,56.00,VWS V15.00,2017-05-28 12:06:00,
2017-05-28 08:10:00,73.3,71.2,29.98,WNW,294,0.0,0.0,93,0.00,,BKN,0.00,88.00,VWS V15.00,2017-05-28 12:10:00,
2017-05-28 08:11:00,73.3,71.2,29.98,WSW,255,0.0,0.0,93,0.00,,BKN,0.00,137.00,VWS V15.00,2017-05-28 12:11:00,
2017-05-28 08:12:00,73.3,71.2,29.98,West,275,0.0,0.0,93,0.00,,BKN,0.00,137.00,VWS V15.00,2017-05-28 12:12:00,
2017-05-28 08:15:00,73.3,71.2,29.98,WSW,257,0.0,0.0,93,0.00,,BKN,0.00,125.00,VWS V15.00,2017-05-28 12:15:00,
2017-05-28 08:17:00,73.4,71.3,29.98,West,269,0.0,0.0,93,0.00,,BKN,0.00,123.00,VWS V15.00,2017-05-28 12:17:00,
2017-05-28 08:20:00,73.6,71.5,29.98,West,276,0.0,0.0,93,0.00,,BKN,0.00,65.00,VWS V15.00,2017-05-28 12:20:00,
2017-05-28 08:22:00,73.7,71.6,29.98,West,265,0.0,0.0,93,0.00,,BKN,0.00,142.00,VWS V15.00,2017-05-28 12:22:00,
2017-05-28 08:25:00,74.0,71.8,29.98,West,281,4.0,7.0,93,0.00,,BKN,0.00,178.00,VWS V15.00,2017-05-28 12:25:00,
2017-05-28 08:27:00,74.0,71.8,29.98,West,264,4.0,8.0,93,0.00,,BKN,0.00,149.00,VWS V15.00,2017-05-28 12:27:00,
2017-05-28 08:30:00,74.3,72.2,29.98,WSW,256,6.0,8.0,93,0.00,,BKN,0.00,72.00,VWS V15.00,2017-05-28 12:30:00,
2017-05-28 08:32:00,74.4,72.2,29.98,West,277,1.0,12.0,93,0.00,,BKN,0.00,116.00,VWS V15.00,2017-05-28 12:32:00,
2017-05-28 08:35:00,74.6,72.4,29.98,WSW,246,3.0,12.0,93,0.00,,BKN,0.00,88.00,VWS V15.00,2017-05-28 12:35:00,
2017-05-28 08:37:00,74.6,72.4,29.98,SW,227,4.0,5.0,93,0.00,,BKN,0.00,142.00,VWS V15.00,2017-05-28 12:37:00,
2017-05-28 08:40:00,74.8,72.6,29.98,WNW,300,4.0,7.0,93,0.00,,BKN,0.00,209.00,VWS V15.00,2017-05-28 12:40:00,
2017-05-28 08:42:00,74.8,72.6,29.98,West,270,3.0,7.0,93,0.00,,BKN,0.00,109.00,VWS V15.00,2017-05-28 12:42:00,
2017-05-28 08:45:00,74.8,72.6,29.99,West,278,2.0,9.0,93,0.00,,BKN,0.00,172.00,VWS V15.00,2017-05-28 12:45:00,
2017-05-28 08:47:00,74.9,72.7,29.99,WNW,292,0.0,4.0,93,0.00,,BKN,0.00,137.00,VWS V15.00,2017-05-28 12:47:00,
2017-05-28 08:50:00,75.0,72.8,29.99,West,271,0.0,4.0,93,0.00,,BKN,0.00,128.00,VWS V15.00,2017-05-28 12:50:00,
2017-05-28 08:52:00,75.0,72.8,29.99,WSW,242,0.0,0.0,93,0.00,,BKN,0.00,200.00,VWS V15.00,2017-05-28 12:52:00,
2017-05-28 08:55:00,75.1,72.9,30.00,West,271,4.0,12.0,93,0.00,,BKN,0.00,176.00,VWS V15.00,2017-05-28 12:55:00,
2017-05-28 08:57:00,75.2,73.0,30.00,West,263,5.0,6.0,93,0.00,,BKN,0.00,207.00,VWS V15.00,2017-05-28 12:57:00,
2017-05-28 09:00:00,75.3,72.8,30.00,WNW,297,0.0,9.0,92,0.00,,BKN,0.00,206.00,VWS V15.00,2017-05-28 13:00:00,
2017-05-28 09:02:00,75.3,72.8,30.00,West,273,0.0,0.0,92,0.00,,BKN,0.00,206.00,VWS V15.00,2017-05-28 13:02:00,
2017-05-28 09:05:00,75.6,72.8,30.00,SW,232,0.0,0.0,91,0.00,,BKN,0.00,155.00,VWS V15.00,2017-05-28 13:05:00,
2017-05-28 09:07:00,75.8,73.0,30.00,West,261,0.0,0.0,91,0.00,,BKN,0.00,207.00,VWS V15.00,2017-05-28 13:07:00,
2017-05-28 09:10:00,76.0,72.9,30.00,WSW,253,0.0,0.0,90,0.00,,BKN,0.00,292.00,VWS V15.00,2017-05-28 13:10:00,
2017-05-28 09:12:00,76.2,73.1,30.00,WSW,254,0.0,0.0,90,0.00,,BKN,0.00,248.00,VWS V15.00,2017-05-28 13:12:00,
2017-05-28 09:15:00,76.5,73.3,30.00,WSW,247,0.0,0.0,90,0.00,,BKN,0.00,216.00,VWS V15.00,2017-05-28 13:15:00,
2017-05-28 09:17:00,76.5,73.0,30.00,WNW,283,0.0,0.0,89,0.00,,BKN,0.00,202.00,VWS V15.00,2017-05-28 13:17:00,
2017-05-28 09:20:00,76.9,73.4,30.00,West,263,0.0,0.0,89,0.00,,BKN,0.00,216.00,VWS V15.00,2017-05-28 13:20:00,
2017-05-28 09:22:00,77.0,73.5,30.00,West,275,0.0,0.0,89,0.00,,BKN,0.00,216.00,VWS V15.00,2017-05-28 13:22:00,
2017-05-28 09:25:00,77.1,73.3,30.00,West,267,0.0,0.0,88,0.00,,BKN,0.00,244.00,VWS V15.00,2017-05-28 13:25:00,
2017-05-28 09:27:00,77.3,73.5,30.00,WSW,248,0.0,0.0,88,0.00,,BKN,0.00,186.00,VWS V15.00,2017-05-28 13:27:00,
2017-05-28 09:30:00,77.2,73.4,30.00,West,264,0.0,0.0,88,0.00,,BKN,0.00,195.00,VWS V15.00,2017-05-28 13:30:00,
2017-05-28 09:32:00,77.2,73.4,30.00,SW,232,0.0,0.0,88,0.00,,BKN,0.00,211.00,VWS V15.00,2017-05-28 13:32:00,
2017-05-28 09:35:00,77.5,73.7,29.99,WSW,242,0.0,0.0,88,0.00,,BKN,0.00,199.00,VWS V15.00,2017-05-28 13:35:00,
2017-05-28 09:37:00,77.5,73.7,29.99,NW,304,0.0,0.0,88,0.00,,BKN,0.00,186.00,VWS V15.00,2017-05-28 13:37:00,
2017-05-28 09:40:00,77.6,73.4,29.99,WSW,257,0.0,0.0,87,0.00,,BKN,0.00,214.00,VWS V15.00,2017-05-28 13:40:00,
2017-05-28 09:42:00,77.5,73.3,30.00,West,281,0.0,0.0,87,0.00,,BKN,0.00,207.00,VWS V15.00,2017-05-28 13:42:00,
2017-05-28 09:45:00,77.7,73.5,30.00,West,265,0.0,0.0,87,0.00,,BKN,0.00,213.00,VWS V15.00,2017-05-28 13:45:00,
2017-05-28 09:47:00,77.6,73.4,30.00,WSW,238,0.0,0.0,87,0.00,,BKN,0.00,241.00,VWS V15.00,2017-05-28 13:47:00,
2017-05-28 09:50:00,77.5,73.0,30.00,West,281,0.0,0.0,86,0.00,,BKN,0.00,236.00,VWS V15.00,2017-05-28 13:50:00,
2017-05-28 09:52:00,77.5,73.0,30.00,West,266,0.0,0.0,86,0.00,,BKN,0.00,195.00,VWS V15.00,2017-05-28 13:52:00,
2017-05-28 09:55:00,77.5,73.0,30.00,WNW,293,0.0,0.0,86,0.00,,BKN,0.00,135.00,VWS V15.00,2017-05-28 13:55:00,
2017-05-28 09:57:00,77.6,73.1,30.00,West,270,0.0,0.0,86,0.00,,BKN,0.00,156.00,VWS V15.00,2017-05-28 13:57:00,
2017-05-28 10:00:00,78.0,73.5,30.00,West,259,0.0,0.0,86,0.00,,BKN,0.00,165.00,VWS V15.00,2017-05-28 14:00:00,
2017-05-28 10:02:00,78.1,73.2,30.00,West,273,0.0,0.0,85,0.00,,BKN,0.00,181.00,VWS V15.00,2017-05-28 14:02:00,
2017-05-28 10:05:00,78.5,73.3,30.00,WNW,286,0.0,0.0,84,0.00,,BKN,0.00,160.00,VWS V15.00,2017-05-28 14:05:00,
2017-05-28 10:07:00,78.8,73.6,30.00,WNW,284,0.0,0.0,84,0.00,,BKN,0.00,165.00,VWS V15.00,2017-05-28 14:07:00,
2017-05-28 10:10:00,79.0,73.4,30.00,WSW,243,0.0,0.0,83,0.00,,BKN,0.00,278.00,VWS V15.00,2017-05-28 14:10:00,
2017-05-28 10:12:00,78.8,73.2,30.00,WSW,242,0.0,0.0,83,0.00,,BKN,0.00,148.00,VWS V15.00,2017-05-28 14:12:00,
2017-05-28 10:15:00,78.9,73.7,30.00,West,266,0.0,0.0,84,0.00,,BKN,0.00,120.00,VWS V15.00,2017-05-28 14:15:00,
2017-05-28 10:17:00,79.2,73.9,30.00,West,279,0.0,0.0,84,0.00,,BKN,0.00,251.00,VWS V15.00,2017-05-28 14:17:00,
2017-05-28 10:20:00,79.3,73.7,30.00,West,260,5.0,5.0,83,0.00,,BKN,0.00,174.00,VWS V15.00,2017-05-28 14:20:00,
2017-05-28 10:22:00,79.6,74.0,30.00,WNW,292,0.0,7.0,83,0.00,,BKN,0.00,213.00,VWS V15.00,2017-05-28 14:22:00,
2017-05-28 10:25:00,79.6,73.6,30.00,West,264,0.0,8.0,82,0.00,,BKN,0.00,213.00,VWS V15.00,2017-05-28 14:25:00,
2017-05-28 10:27:00,79.5,73.5,30.00,WSW,254,1.0,4.0,82,0.00,,BKN,0.00,213.00,VWS V15.00,2017-05-28 14:27:00,
2017-05-28 10:30:00,80.4,74.4,30.00,West,273,3.0,6.0,82,0.00,,BKN,0.00,276.00,VWS V15.00,2017-05-28 14:30:00,
2017-05-28 10:32:00,80.8,74.1,30.00,WNW,286,3.0,8.0,80,0.00,,BKN,0.00,274.00,VWS V15.00,2017-05-28 14:32:00,
2017-05-28 10:35:00,80.8,73.7,29.99,WSW,241,0.0,8.0,79,0.00,,BKN,0.00,410.00,VWS V15.00,2017-05-28 14:35:00,
2017-05-28 10:37:00,80.6,73.1,29.99,West,261,1.0,6.0,78,0.00,,BKN,0.00,410.00,VWS V15.00,2017-05-28 14:37:00,
2017-05-28 10:40:00,80.6,73.5,30.00,WNW,298,3.0,6.0,79,0.00,,BKN,0.00,770.00,VWS V15.00,2017-05-28 14:40:00,
2017-05-28 10:42:00,80.8,73.7,30.00,West,266,0.0,8.0,79,0.00,,BKN,0.00,786.00,VWS V15.00,2017-05-28 14:42:00,
2017-05-28 10:43:00,80.8,73.7,30.00,SW,229,4.0,8.0,79,0.00,,BKN,0.00,786.00,VWS V15.00,2017-05-28 14:43:00,
2017-05-28 10:45:00,81.0,73.5,30.00,WSW,238,2.0,8.0,78,0.00,,BKN,0.00,786.00,VWS V15.00,2017-05-28 14:45:00,
2017-05-28 10:48:00,80.8,73.3,30.00,WSW,237,7.0,7.0,78,0.00,,BKN,0.00,786.00,VWS V15.00,2017-05-28 14:48:00,
2017-05-28 10:50:00,81.2,73.7,30.00,West,263,7.0,8.0,78,0.00,,BKN,0.00,798.00,VWS V15.00,2017-05-28 14:50:00,
2017-05-28 10:53:00,81.7,73.8,30.00,WSW,242,2.0,7.0,77,0.00,,BKN,0.00,809.00,VWS V15.00,2017-05-28 14:53:00,
2017-05-28 10:55:00,81.8,73.5,30.00,SW,221,0.0,7.0,76,0.00,,BKN,0.00,807.00,VWS V15.00,2017-05-28 14:55:00,
2017-05-28 10:58:00,82.0,73.7,30.00,West,272,0.0,5.0,76,0.00,,BKN,0.00,814.00,VWS V15.00,2017-05-28 14:58:00,
2017-05-28 11:00:00,82.2,73.5,30.00,WNW,292,8.0,8.0,75,0.00,,BKN,0.00,823.00,VWS V15.00,2017-05-28 15:00:00,
2017-05-28 11:03:00,83.0,73.9,30.00,West,280,1.0,8.0,74,0.00,,BKN,0.00,819.00,VWS V15.00,2017-05-28 15:03:00,
2017-05-28 11:05:00,83.5,73.9,30.00,WNW,289,0.0,8.0,73,0.00,,BKN,0.00,830.00,VWS V15.00,2017-05-28 15:05:00,
2017-05-28 11:08:00,82.8,72.9,30.00,WSW,238,0.0,0.0,72,0.00,,BKN,0.00,833.00,VWS V15.00,2017-05-28 15:08:00,
2017-05-28 11:10:00,82.2,73.1,30.00,WSW,252,0.0,0.0,74,0.00,,BKN,0.00,874.00,VWS V15.00,2017-05-28 15:10:00,
2017-05-28 11:13:00,82.8,73.3,30.00,West,266,0.0,0.0,73,0.00,,BKN,0.00,853.00,VWS V15.00,2017-05-28 15:13:00,
2017-05-28 11:15:00,82.8,73.3,30.00,West,271,0.0,0.0,73,0.00,,BKN,0.00,854.00,VWS V15.00,2017-05-28 15:15:00,
2017-05-28 11:18:00,83.2,72.8,30.00,West,281,4.0,12.0,71,0.00,,BKN,0.00,856.00,VWS V15.00,2017-05-28 15:18:00,
2017-05-28 11:20:00,83.8,73.0,30.00,NNW,331,10.0,12.0,70,0.00,,BKN,0.00,856.00,VWS V15.00,2017-05-28 15:20:00,
2017-05-28 11:23:00,84.0,72.7,30.00,West,277,7.0,10.0,69,0.00,,BKN,0.00,856.00,VWS V15.00,2017-05-28 15:23:00,
2017-05-28 11:25:00,84.5,73.2,30.00,West,267,5.0,10.0,69,0.00,,BKN,0.00,867.00,VWS V15.00,2017-05-28 15:25:00,
2017-05-28 11:28:00,84.0,73.6,30.00,West,264,4.0,7.0,71,0.00,,BKN,0.00,882.00,VWS V15.00,2017-05-28 15:28:00,
2017-05-28 11:30:00,83.8,73.0,30.00,SSW,192,3.0,7.0,70,0.00,,BKN,0.00,884.00,VWS V15.00,2017-05-28 15:30:00,
2017-05-28 11:33:00,83.4,72.2,30.00,West,270,4.0,14.0,69,0.00,,BKN,0.00,895.00,VWS V15.00,2017-05-28 15:33:00,
2017-05-28 11:35:00,83.9,72.7,30.00,West,262,2.0,14.0,69,0.00,,BKN,0.00,895.00,VWS V15.00,2017-05-28 15:35:00,
2017-05-28 11:38:00,84.5,73.2,30.01,West,263,1.0,8.0,69,0.00,,BKN,0.00,896.00,VWS V15.00,2017-05-28 15:38:00,
2017-05-28 11:40:00,84.8,73.5,30.01,West,271,7.0,12.0,69,0.00,,BKN,0.00,898.00,VWS V15.00,2017-05-28 15:40:00,
2017-05-28 11:43:00,84.3,72.2,30.01,SSW,202,0.0,9.0,67,0.00,,BKN,0.00,905.00,VWS V15.00,2017-05-28 15:43:00,
2017-05-28 11:45:00,83.9,72.7,30.01,SSW,205,0.0,9.0,69,0.00,,BKN,0.00,907.00,VWS V15.00,2017-05-28 15:45:00,
2017-05-28 11:48:00,84.0,73.2,30.02,West,275,0.0,0.0,70,0.00,,BKN,0.00,912.00,VWS V15.00,2017-05-28 15:48:00,
2017-05-28 11:50:00,84.6,72.9,30.02,WNW,290,0.0,0.0,68,0.00,,BKN,0.00,911.00,VWS V15.00,2017-05-28 15:50:00,
2017-05-28 11:53:00,85.0,72.8,30.02,WSW,252,0.0,0.0,67,0.00,,BKN,0.00,919.00,VWS V15.00,2017-05-28 15:53:00,
2017-05-28 11:55:00,85.0,73.3,30.02,WNW,286,0.0,0.0,68,0.00,,BKN,0.00,918.00,VWS V15.00,2017-05-28 15:55:00,
2017-05-28 11:58:00,85.7,72.6,30.02,SW,231,0.0,0.0,65,0.00,,BKN,0.00,940.00,VWS V15.00,2017-05-28 15:58:00,
2017-05-28 12:00:00,85.6,72.9,30.02,West,261,0.0,0.0,66,0.00,,BKN,0.00,926.00,VWS V15.00,2017-05-28 16:00:00,
2017-05-28 12:03:00,85.6,72.5,30.01,West,264,0.0,0.0,65,0.00,,BKN,0.00,926.00,VWS V15.00,2017-05-28 16:03:00,
2017-05-28 12:05:00,85.7,72.6,30.01,West,275,0.0,0.0,65,0.00,,BKN,0.00,928.00,VWS V15.00,2017-05-28 16:05:00,
2017-05-28 12:08:00,86.5,72.9,30.01,WNW,288,4.0,8.0,64,0.00,,BKN,0.00,946.00,VWS V15.00,2017-05-28 16:08:00,
2017-05-28 12:10:00,86.6,72.0,30.01,NW,315,3.0,8.0,62,0.00,,BKN,0.00,958.00,VWS V15.00,2017-05-28 16:10:00,
2017-05-28 12:13:00,86.9,72.8,30.01,West,265,5.0,9.0,63,0.00,,BKN,0.00,970.00,VWS V15.00,2017-05-28 16:13:00,
2017-05-28 12:15:00,86.8,72.7,30.01,West,266,4.0,11.0,63,0.00,,BKN,0.00,974.00,VWS V15.00,2017-05-28 16:15:00,
2017-05-28 12:18:00,86.2,72.1,30.01,WSW,238,0.0,6.0,63,0.00,,BKN,0.00,958.00,VWS V15.00,2017-05-28 16:18:00,
2017-05-28 12:20:00,86.1,73.0,30.01,SW,234,3.0,7.0,65,0.00,,BKN,0.00,960.00,VWS V15.00,2017-05-28 16:20:00,
2017-05-28 12:23:00,85.9,73.2,30.01,WSW,253,3.0,6.0,66,0.00,,BKN,0.00,962.00,VWS V15.00,2017-05-28 16:23:00,
2017-05-28 12:25:00,85.8,72.2,30.01,WSW,250,0.0,6.0,64,0.00,,BKN,0.00,962.00,VWS V15.00,2017-05-28 16:25:00,
2017-05-28 12:28:00,85.5,71.5,30.01,WSW,248,0.0,0.0,63,0.00,,BKN,0.00,963.00,VWS V15.00,2017-05-28 16:28:00,
2017-05-28 12:30:00,85.8,73.1,30.01,West,264,0.0,0.0,66,0.00,,BKN,0.00,984.00,VWS V15.00,2017-05-28 16:30:00,
2017-05-28 12:33:00,86.6,73.4,30.01,West,272,0.0,0.0,65,0.00,,BKN,0.00,979.00,VWS V15.00,2017-05-28 16:33:00,
2017-05-28 12:35:00,86.7,73.5,30.01,WSW,246,0.0,0.0,65,0.00,,BKN,0.00,979.00,VWS V15.00,2017-05-28 16:35:00,
2017-05-28 12:38:00,87.3,73.2,30.01,WNW,287,0.0,0.0,63,0.00,,BKN,0.00,981.00,VWS V15.00,2017-05-28 16:38:00,
2017-05-28 12:40:00,87.7,72.6,30.00,SW,229,0.0,0.0,61,0.00,,BKN,0.00,970.00,VWS V15.00,2017-05-28 16:40:00,
2017-05-28 12:43:00,87.2,72.1,30.00,WNW,285,0.0,0.0,61,0.00,,BKN,0.00,1023.00,VWS V15.00,2017-05-28 16:43:00,
2017-05-28 12:45:00,86.8,72.7,30.00,SSW,207,0.0,0.0,63,0.00,,BKN,0.00,1011.00,VWS V15.00,2017-05-28 16:45:00,
2017-05-28 12:48:00,86.9,72.8,30.00,SW,223,0.0,0.0,63,0.00,,BKN,0.00,1044.00,VWS V15.00,2017-05-28 16:48:00,
2017-05-28 12:50:00,87.1,73.4,30.00,WSW,254,0.0,0.0,64,0.00,,BKN,0.00,1011.00,VWS V15.00,2017-05-28 16:50:00,
2017-05-28 12:53:00,87.6,72.0,30.00,WSW,256,0.0,0.0,60,0.00,,BKN,0.00,1011.00,VWS V15.00,2017-05-28 16:53:00,
2017-05-28 12:55:00,88.3,72.7,30.00,West,280,0.0,0.0,60,0.00,,BKN,0.00,997.00,VWS V15.00,2017-05-28 16:55:00,
2017-05-28 12:58:00,88.0,71.4,30.00,WNW,300,0.0,0.0,58,0.00,,BKN,0.00,976.00,VWS V15.00,2017-05-28 16:58:00,
2017-05-28 13:00:00,87.6,72.0,30.00,WNW,296,0.0,0.0,60,0.00,,BKN,0.00,983.00,VWS V15.00,2017-05-28 17:00:00,
2017-05-28 13:03:00,88.6,72.4,30.00,WSW,251,0.0,0.0,59,0.00,,BKN,0.00,970.00,VWS V15.00,2017-05-28 17:03:00,
2017-05-28 13:05:00,89.2,72.0,30.00,West,269,0.0,0.0,57,0.00,,BKN,0.00,1005.00,VWS V15.00,2017-05-28 17:05:00,
2017-05-28 13:08:00,89.3,72.6,30.00,West,274,0.0,0.0,58,0.00,,BKN,0.00,1041.00,VWS V15.00,2017-05-28 17:08:00,
2017-05-28 13:10:00,88.9,71.7,30.00,WSW,252,0.0,0.0,57,0.00,,BKN,0.00,1039.00,VWS V15.00,2017-05-28 17:10:00,
2017-05-28 13:13:00,88.1,71.5,29.99,West,277,0.0,0.0,58,0.00,,BKN,0.00,225.00,VWS V15.00,2017-05-28 17:13:00,
2017-05-28 13:15:00,88.0,72.9,29.99,West,267,0.0,0.0,61,0.00,,BKN,0.00,339.00,VWS V15.00,2017-05-28 17:15:00,
2017-05-28 13:18:00,87.7,71.1,29.99,West,279,0.0,0.0,58,0.00,,BKN,0.00,260.00,VWS V15.00,2017-05-28 17:18:00,
2017-05-28 13:20:00,88.5,72.3,29.99,WNW,284,0.0,0.0,59,0.00,,BKN,0.00,1002.00,VWS V15.00,2017-05-28 17:20:00,
2017-05-28 13:23:00,89.6,71.3,29.99,West,274,0.0,0.0,55,0.00,,BKN,0.00,990.00,VWS V15.00,2017-05-28 17:23:00,
2017-05-28 13:25:00,89.9,72.1,29.99,WSW,248,0.0,0.0,56,0.00,,BKN,0.00,1056.00,VWS V15.00,2017-05-28 17:25:00,
2017-05-28 13:28:00,89.3,71.0,29.99,WSW,242,0.0,0.0,55,0.00,,BKN,0.00,1056.00,VWS V15.00,2017-05-28 17:28:00,
2017-05-28 13:30:00,89.8,71.5,29.99,West,277,0.0,0.0,55,0.00,,BKN,0.00,988.00,VWS V15.00,2017-05-28 17:30:00,
2017-05-28 13:33:00,90.8,71.9,29.99,West,262,0.0,0.0,54,0.00,,BKN,0.00,1002.00,VWS V15.00,2017-05-28 17:33:00,
2017-05-28 13:35:00,90.9,72.0,29.99,WSW,250,0.0,0.0,54,0.00,,BKN,0.00,1025.00,VWS V15.00,2017-05-28 17:35:00,
2017-05-28 13:38:00,90.4,71.5,29.99,West,269,0.0,0.0,54,0.00,,BKN,0.00,1053.00,VWS V15.00,2017-05-28 17:38:00,
2017-05-28 13:40:00,90.2,70.8,29.99,WSW,240,0.0,0.0,53,0.00,,BKN,0.00,265.00,VWS V15.00,2017-05-28 17:40:00,
2017-05-28 13:43:00,88.9,71.7,29.99,SW,227,0.0,0.0,57,0.00,,BKN,0.00,1099.00,VWS V15.00,2017-05-28 17:43:00,
2017-05-28 13:45:00,88.8,70.0,29.98,SSE,166,0.0,0.0,54,0.00,,BKN,0.00,1027.00,VWS V15.00,2017-05-28 17:45:00,
2017-05-28 13:48:00,88.9,71.2,29.98,SSW,212,0.0,0.0,56,0.00,,BKN,0.00,942.00,VWS V15.00,2017-05-28 17:48:00,
2017-05-28 13:50:00,89.4,71.1,29.98,SW,230,0.0,0.0,55,0.00,,BKN,0.00,1034.00,VWS V15.00,2017-05-28 17:50:00,
2017-05-28 13:55:00,89.8,70.4,29.98,WNW,300,0.0,0.0,53,0.00,,BKN,0.00,1030.00,VWS V15.00,2017-05-28 17:55:00,
2017-05-28 14:00:00,90.4,71.5,29.98,NW,311,0.0,0.0,54,0.00,,BKN,0.00,937.00,VWS V15.00,2017-05-28 18:00:00,
2017-05-28 14:05:00,89.9,72.6,29.98,NNW,346,0.0,0.0,57,0.00,,BKN,0.00,933.00,VWS V15.00,2017-05-28 18:05:00,
2017-05-28 14:10:00,88.7,72.5,29.98,SW,230,0.0,0.0,59,0.00,,BKN,0.00,902.00,VWS V15.00,2017-05-28 18:10:00,
2017-05-28 14:15:00,90.5,70.5,29.97,NNW,337,0.0,0.0,52,0.00,,BKN,0.00,937.00,VWS V15.00,2017-05-28 18:15:00,
2017-05-28 14:20:00,90.2,72.9,29.98,North,360,0.0,0.0,57,0.00,,BKN,0.00,960.00,VWS V15.00,2017-05-28 18:20:00,
2017-05-28 14:25:00,88.3,72.2,29.97,SSE,152,0.0,0.0,59,0.00,,BKN,0.00,926.00,VWS V15.00,2017-05-28 18:25:00,
2017-05-28 14:30:00,88.2,73.1,29.98,ENE,61,0.0,0.0,61,0.00,,BKN,0.00,919.00,VWS V15.00,2017-05-28 18:30:00,
2017-05-28 14:35:00,90.2,70.2,29.97,West,267,0.0,0.0,52,0.00,,BKN,0.00,928.00,VWS V15.00,2017-05-28 18:35:00,
2017-05-28 14:40:00,91.7,69.2,29.97,WNW,290,0.0,0.0,48,0.00,,BKN,0.00,979.00,VWS V15.00,2017-05-28 18:40:00,
2017-05-28 14:48:00,90.9,70.3,29.96,West,275,0.0,0.0,51,0.00,,BKN,0.00,896.00,VWS V15.00,2017-05-28 18:48:00,
2017-05-28 14:53:00,91.5,70.8,29.96,West,269,0.0,0.0,51,0.00,,BKN,0.00,868.00,VWS V15.00,2017-05-28 18:53:00,
2017-05-28 14:58:00,91.5,70.8,29.96,WSW,250,0.0,0.0,51,0.00,,BKN,0.00,865.00,VWS V15.00,2017-05-28 18:58:00,
2017-05-28 15:03:00,91.5,70.2,29.96,WSW,242,0.0,0.0,50,0.00,,BKN,0.00,856.00,VWS V15.00,2017-05-28 19:03:00,
2017-05-28 15:08:00,91.9,73.4,29.96,East,87,0.0,0.0,55,0.00,,BKN,0.00,860.00,VWS V15.00,2017-05-28 19:08:00,
2017-05-28 15:13:00,90.6,72.2,29.96,NNE,21,0.0,0.0,55,0.00,,BKN,0.00,826.00,VWS V15.00,2017-05-28 19:13:00,
2017-05-28 15:18:00,91.4,73.0,29.96,SE,142,0.0,0.0,55,0.00,,BKN,0.00,772.00,VWS V15.00,2017-05-28 19:18:00,
2017-05-28 15:23:00,90.6,69.4,29.96,NW,313,0.0,0.0,50,0.00,,BKN,0.00,800.00,VWS V15.00,2017-05-28 19:23:00,
2017-05-28 15:28:00,90.8,74.5,29.95,NE,46,0.0,0.0,59,0.00,,BKN,0.00,805.00,VWS V15.00,2017-05-28 19:28:00,
2017-05-28 15:33:00,87.5,72.4,29.95,SSW,205,0.0,0.0,61,0.00,,BKN,0.00,791.00,VWS V15.00,2017-05-28 19:33:00,
2017-05-28 15:38:00,89.5,71.2,29.95,WSW,248,0.0,0.0,55,0.00,,BKN,0.00,779.00,VWS V15.00,2017-05-28 19:38:00,
2017-05-28 15:43:00,90.8,70.2,29.95,West,259,0.0,0.0,51,0.00,,BKN,0.00,770.00,VWS V15.00,2017-05-28 19:43:00,
2017-05-28 15:48:00,91.2,69.4,29.94,SW,226,0.0,0.0,49,0.00,,BKN,0.00,749.00,VWS V15.00,2017-05-28 19:48:00,
2017-05-28 15:53:00,91.7,69.8,29.94,West,278,0.0,0.0,49,0.00,,BKN,0.00,737.00,VWS V15.00,2017-05-28 19:53:00,
2017-05-28 15:58:00,92.2,70.3,29.94,WSW,254,0.0,0.0,49,0.00,,BKN,0.00,729.00,VWS V15.00,2017-05-28 19:58:00,
2017-05-28 16:03:00,91.8,69.9,29.94,West,261,0.0,0.0,49,0.00,,BKN,0.00,717.00,VWS V15.00,2017-05-28 20:03:00,
2017-05-28 16:08:00,92.9,69.7,29.94,West,267,0.0,0.0,47,0.00,,BKN,0.00,712.00,VWS V15.00,2017-05-28 20:08:00,
2017-05-28 16:13:00,92.8,69.0,29.95,WNW,290,0.0,0.0,46,0.00,,BKN,0.00,684.00,VWS V15.00,2017-05-28 20:13:00,
2017-05-28 16:18:00,88.6,73.9,29.94,North,5,0.0,0.0,62,0.00,,BKN,0.00,598.00,VWS V15.00,2017-05-28 20:18:00,
2017-05-28 16:23:00,86.7,74.4,29.94,East,85,0.0,0.0,67,0.00,,BKN,0.00,668.00,VWS V15.00,2017-05-28 20:23:00,
2017-05-28 16:28:00,87.0,75.2,29.94,ESE,107,0.0,0.0,68,0.00,,BKN,0.00,643.00,VWS V15.00,2017-05-28 20:28:00,
2017-05-28 16:33:00,85.6,74.7,29.94,East,93,0.0,0.0,70,0.00,,BKN,0.00,624.00,VWS V15.00,2017-05-28 20:33:00,
2017-05-28 16:38:00,85.0,74.6,29.94,East,85,0.0,0.0,71,0.00,,BKN,0.00,598.00,VWS V15.00,2017-05-28 20:38:00,
2017-05-28 16:43:00,85.7,74.4,29.93,SE,128,0.0,0.0,69,0.00,,BKN,0.00,584.00,VWS V15.00,2017-05-28 20:43:00,
2017-05-28 16:48:00,85.5,75.4,29.93,East,84,0.0,0.0,72,0.00,,BKN,0.00,135.00,VWS V15.00,2017-05-28 20:48:00,
2017-05-28 16:53:00,85.1,74.6,29.93,East,98,0.0,0.0,71,0.00,,BKN,0.00,248.00,VWS V15.00,2017-05-28 20:53:00,
2017-05-28 16:58:00,85.8,74.5,29.93,ENE,76,0.0,0.0,69,0.00,,BKN,0.00,121.00,VWS V15.00,2017-05-28 20:58:00,
2017-05-28 17:03:00,86.1,75.2,29.93,East,84,0.0,0.0,70,0.00,,BKN,0.00,141.00,VWS V15.00,2017-05-28 21:03:00,
2017-05-28 17:08:00,85.4,74.1,29.93,East,99,0.0,0.0,69,0.00,,BKN,0.00,81.00,VWS V15.00,2017-05-28 21:08:00,
2017-05-28 17:13:00,84.8,73.9,29.93,ENE,69,0.0,0.0,70,0.00,,BKN,0.00,77.00,VWS V15.00,2017-05-28 21:13:00,
2017-05-28 17:14:00,84.8,73.9,29.93,East,94,0.0,0.0,70,0.00,,BKN,0.00,81.00,VWS V15.00,2017-05-28 21:14:00,
2017-05-28 17:19:00,84.6,74.2,29.93,East,96,0.0,0.0,71,0.00,,BKN,0.00,83.00,VWS V15.00,2017-05-28 21:19:00,
2017-05-28 17:24:00,84.4,75.2,29.93,SE,125,0.0,0.0,74,0.00,,BKN,0.00,72.00,VWS V15.00,2017-05-28 21:24:00,
2017-05-28 17:29:00,83.7,74.9,29.93,ESE,116,0.0,0.0,75,0.00,,BKN,0.00,69.00,VWS V15.00,2017-05-28 21:29:00,